TimeCST,TemperatureF,Dew PointF,Humidity,Sea Level PressureIn,VisibilityMPH,Wind Direction,Wind SpeedMPH,Gust SpeedMPH,PrecipitationIn,Events,Conditions,WindDirDegrees,DateUTC
12:15 AM,35.6,5.0,28,30.30,10.0,ENE,6.9,-,N/A,,Overcast,70,2013-01-25 06:15:00
12:35 AM,35.6,1.4,24,30.30,10.0,ENE,3.5,-,N/A,,Overcast,60,2013-01-25 06:35:00
12:55 AM,37.4,1.4,22,30.29,10.0,Calm,Calm,-,N/A,,Overcast,0,2013-01-25 06:55:00
1:15 AM,37.4,3.2,24,30.28,10.0,ENE,3.5,-,N/A,,Overcast,70,2013-01-25 07:15:00
1:35 AM,37.4,6.8,28,30.28,10.0,South,3.5,-,N/A,,Overcast,180,2013-01-25 07:35:00
1:55 AM,37.4,8.6,30,30.28,10.0,ESE,8.1,-,N/A,,Overcast,120,2013-01-25 07:55:00
2:15 AM,37.4,10.4,33,30.27,10.0,East,4.6,-,N/A,,Overcast,100,2013-01-25 08:15:00
2:35 AM,37.4,10.4,33,30.26,10.0,Calm,Calm,-,N/A,,Overcast,0,2013-01-25 08:35:00
2:55 AM,37.4,12.2,36,30.26,10.0,Calm,Calm,-,N/A,,Overcast,0,2013-01-25 08:55:00
3:15 AM,37.4,14.0,38,30.25,10.0,East,5.8,-,N/A,,Overcast,90,2013-01-25 09:15:00
3:35 AM,37.4,14.0,38,30.25,10.0,Calm,Calm,-,N/A,,Overcast,0,2013-01-25 09:35:00
3:55 AM,37.4,14.0,38,30.24,10.0,SE,3.5,-,N/A,,Overcast,140,2013-01-25 09:55:00
4:15 AM,37.4,15.8,41,30.24,10.0,NNW,4.6,-,N/A,,Overcast,340,2013-01-25 10:15:00
4:35 AM,37.4,17.6,45,30.23,10.0,North,4.6,-,N/A,,Overcast,350,2013-01-25 10:35:00
4:55 AM,37.4,15.8,41,30.24,10.0,NNW,3.5,-,N/A,,Overcast,340,2013-01-25 10:55:00
5:15 AM,37.4,15.8,41,30.24,10.0,Calm,Calm,-,N/A,,Overcast,0,2013-01-25 11:15:00
5:35 AM,37.4,15.8,41,30.24,10.0,SSW,8.1,18.4,N/A,,Overcast,200,2013-01-25 11:35:00
5:55 AM,37.4,15.8,41,30.23,10.0,Calm,Calm,-,N/A,,Overcast,0,2013-01-25 11:55:00
6:15 AM,37.4,17.6,45,30.25,10.0,Calm,Calm,-,N/A,,Overcast,0,2013-01-25 12:15:00
6:35 AM,37.4,17.6,45,30.24,10.0,SW,8.1,-,N/A,,Overcast,220,2013-01-25 12:35:00
6:55 AM,35.6,19.4,52,30.24,10.0,SSE,6.9,20.7,N/A,Rain,Light Rain,160,2013-01-25 12:55:00
7:35 AM,33.8,23.0,65,30.23,10.0,SE,16.1,25.3,N/A,,Overcast,140,2013-01-25 13:35:00
7:55 AM,35.6,21.2,56,30.24,10.0,South,5.8,-,N/A,,Overcast,180,2013-01-25 13:55:00
8:15 AM,35.6,21.2,56,30.22,10.0,South,5.8,-,N/A,,Overcast,190,2013-01-25 14:15:00
8:35 AM,35.6,21.2,56,30.22,10.0,SSE,3.5,-,N/A,Rain,Light Rain,160,2013-01-25 14:35:00
8:55 AM,35.6,21.2,56,30.20,10.0,East,10.4,17.3,N/A,,Overcast,90,2013-01-25 14:55:00
9:15 AM,35.6,21.2,56,30.20,10.0,SSE,5.8,16.1,N/A,,Overcast,160,2013-01-25 15:15:00
9:35 AM,35.6,21.2,56,30.20,10.0,South,12.7,19.6,N/A,,Overcast,190,2013-01-25 15:35:00
9:55 AM,35.6,21.2,56,30.20,10.0,SE,5.8,20.7,N/A,,Overcast,140,2013-01-25 15:55:00
10:15 AM,37.4,21.2,52,30.20,10.0,South,4.6,16.1,N/A,,Overcast,180,2013-01-25 16:15:00
10:35 AM,37.4,21.2,52,30.19,10.0,SE,6.9,16.1,N/A,,Overcast,140,2013-01-25 16:35:00
10:55 AM,37.4,23.0,56,30.18,10.0,SE,5.8,-,N/A,,Overcast,130,2013-01-25 16:55:00
11:15 AM,41.0,26.6,57,30.15,10.0,South,6.9,-,N/A,,Overcast,180,2013-01-25 17:15:00
11:35 AM,41.0,28.4,61,30.17,10.0,SSE,9.2,21.9,N/A,,Overcast,160,2013-01-25 17:35:00
11:55 AM,39.2,30.2,70,30.18,5.0,SSW,4.6,-,N/A,Rain,Rain,200,2013-01-25 17:55:00
12:15 PM,37.4,30.2,75,30.17,7.0,ESE,4.6,-,0.01,Rain,Light Rain,110,2013-01-25 18:15:00
12:35 PM,37.4,32.0,81,30.16,7.0,Calm,Calm,-,0.01,,Light Drizzle,0,2013-01-25 18:35:00
12:55 PM,37.4,32.0,81,30.13,7.0,ESE,3.5,-,0.02,,Light Drizzle,120,2013-01-25 18:55:00
1:15 PM,37.4,32.0,81,30.13,10.0,Calm,Calm,-,N/A,,Overcast,0,2013-01-25 19:15:00
1:35 PM,37.4,32.0,81,30.12,10.0,Calm,Calm,-,N/A,,Overcast,0,2013-01-25 19:35:00
1:55 PM,39.2,33.8,81,30.11,10.0,Calm,Calm,-,N/A,,Overcast,0,2013-01-25 19:55:00
2:15 PM,39.2,33.8,81,30.11,10.0,Calm,Calm,-,N/A,,Overcast,0,2013-01-25 20:15:00
2:35 PM,39.2,33.8,81,30.10,10.0,SE,3.5,-,N/A,,Overcast,140,2013-01-25 20:35:00
2:55 PM,41.0,33.8,76,30.09,10.0,Calm,Calm,-,N/A,,Overcast,0,2013-01-25 20:55:00
3:15 PM,41.0,33.8,76,30.09,10.0,Calm,Calm,-,N/A,,Overcast,0,2013-01-25 21:15:00
3:35 PM,41.0,33.8,76,30.10,10.0,North,6.9,-,N/A,,Overcast,360,2013-01-25 21:35:00
3:55 PM,41.0,33.8,76,30.10,10.0,Calm,Calm,-,N/A,,Overcast,0,2013-01-25 21:55:00
4:15 PM,41.0,35.6,81,30.10,7.0,Calm,Calm,-,N/A,,Drizzle,0,2013-01-25 22:15:00
4:35 PM,41.0,35.6,81,30.11,7.0,NE,5.8,-,N/A,,Overcast,40,2013-01-25 22:35:00
4:55 PM,41.0,35.6,81,30.12,7.0,NE,4.6,-,N/A,Rain,Rain,50,2013-01-25 22:55:00
5:15 PM,41.0,35.6,81,30.12,4.0,Calm,Calm,-,N/A,,Drizzle,0,2013-01-25 23:15:00
5:35 PM,41.0,35.6,81,30.13,4.0,Calm,Calm,-,0.01,,Drizzle,0,2013-01-25 23:35:00
5:55 PM,39.2,35.6,87,30.14,4.0,Calm,Calm,-,0.02,Rain,Heavy Rain,0,2013-01-25 23:55:00
6:15 PM,39.2,37.4,93,30.14,4.0,Calm,Calm,-,N/A,,Overcast,0,2013-01-26 00:15:00
6:35 PM,41.0,37.4,87,30.13,4.0,Calm,Calm,-,N/A,,Overcast,0,2013-01-26 00:35:00
6:55 PM,41.0,37.4,87,30.14,3.0,Calm,Calm,-,0.01,,Light Drizzle,0,2013-01-26 00:55:00
7:15 PM,41.0,37.4,87,30.14,3.0,Calm,Calm,-,0.01,,Drizzle,0,2013-01-26 01:15:00
7:35 PM,41.0,37.4,87,30.14,3.0,Calm,Calm,-,0.01,,Overcast,0,2013-01-26 01:35:00
7:55 PM,41.0,37.4,87,30.14,3.0,Calm,Calm,-,0.01,,Overcast,0,2013-01-26 01:55:00
8:15 PM,41.0,37.4,87,30.15,3.0,Calm,Calm,-,N/A,,Overcast,0,2013-01-26 02:15:00
8:35 PM,41.0,37.4,87,30.15,2.0,Calm,Calm,-,N/A,,Drizzle,0,2013-01-26 02:35:00
8:55 PM,41.0,37.4,87,30.16,2.5,Calm,Calm,-,N/A,,Overcast,0,2013-01-26 02:55:00
9:15 PM,41.0,37.4,87,30.16,2.0,Calm,Calm,-,N/A,,Overcast,0,2013-01-26 03:15:00
9:35 PM,41.0,37.4,87,30.16,1.5,Calm,Calm,-,N/A,,Overcast,0,2013-01-26 03:35:00
9:55 PM,41.0,37.4,87,30.16,1.8,Calm,Calm,-,N/A,,Overcast,0,2013-01-26 03:55:00
10:15 PM,41.0,37.4,87,30.17,1.8,Calm,Calm,-,N/A,,Overcast,0,2013-01-26 04:15:00
10:35 PM,41.0,37.4,87,30.17,2.0,Calm,Calm,-,N/A,,Overcast,0,2013-01-26 04:35:00
10:55 PM,41.0,37.4,87,30.17,2.5,Calm,Calm,-,N/A,,Overcast,0,2013-01-26 04:55:00
11:15 PM,41.0,37.4,87,30.17,2.5,NNE,3.5,-,N/A,,Overcast,20,2013-01-26 05:15:00
11:35 PM,41.0,37.4,87,30.17,2.5,Calm,Calm,-,N/A,,Overcast,0,2013-01-26 05:35:00
11:55 PM,41.0,37.4,87,30.17,2.5,Calm,Calm,-,N/A,,Overcast,0,2013-01-26 05:55:00